Hourly Weather Bolshinka

Today, 23 July, Friday

Time Temperature Precipitation Wind Pressure Humidity
00:00 +22°C° 0 mm 4 mps 749 mmHg 62%
01:00 +22°C° 0 mm 4 mps 749 mmHg 63%
02:00 +21°C° 0 mm 4 mps 749 mmHg 65%
03:00 +21°C° 0 mm 4 mps 749 mmHg 68%
04:00 +20°C° 0 mm 4 mps 749 mmHg 69%
05:00 +20°C° 0 mm 4 mps 750 mmHg 70%
06:00 +20°C° 0 mm 4 mps 750 mmHg 71%
07:00 +22°C° 0 mm 5 mps 750 mmHg 64%
08:00 +23°C° 0 mm 5 mps 750 mmHg 57%
09:00 +26°C° 0 mm 6 mps 750 mmHg 48%
10:00 +27°C° 0 mm 6 mps 750 mmHg 44%
11:00 +28°C° 0 mm 5 mps 750 mmHg 39%
12:00 +28°C° 0 mm 5 mps 751 mmHg 35%
13:00 +29°C° 0 mm 5 mps 750 mmHg 32%
14:00 +30°C° 0 mm 5 mps 750 mmHg 29%
15:00 +32°C° 0 mm 4 mps 750 mmHg 26%
16:00 +30°C° 0 mm 4 mps 750 mmHg 26%
17:00 +30°C° 0 mm 4 mps 750 mmHg 27%
18:00 +30°C° 0 mm 4 mps 751 mmHg 27%
19:00 +28°C° 0 mm 4 mps 751 mmHg 32%
20:00 +26°C° 0 mm 4 mps 752 mmHg 36%
21:00 +23°C° 0 mm 4 mps 752 mmHg 41%
22:00 +22°C° 0 mm 4 mps 752 mmHg 44%
23:00 +21°C° 0 mm 3 mps 753 mmHg 48%

Tomorrow, 24 July, Saturday

Time Temperature Precipitation Wind Pressure Humidity
00:00 +20°C° 0 mm 3 mps 753 mmHg 51%
01:00 +19°C° 0 mm 3 mps 753 mmHg 53%
02:00 +19°C° 0 mm 2 mps 754 mmHg 54%
03:00 +18°C° 0 mm 2 mps 754 mmHg 55%
04:00 +18°C° 0 mm 2 mps 754 mmHg 56%
05:00 +19°C° 0 mm 2 mps 754 mmHg 56%
06:00 +19°C° 0 mm 2 mps 754 mmHg 56%
07:00 +21°C° 0 mm 2 mps 754 mmHg 50%
08:00 +24°C° 0 mm 2 mps 754 mmHg 44%
09:00 +27°C° 0 mm 3 mps 755 mmHg 38%
10:00 +28°C° 0 mm 3 mps 755 mmHg 34%
11:00 +29°C° 0 mm 3 mps 755 mmHg 31%
12:00 +30°C° 0 mm 3 mps 755 mmHg 28%
13:00 +30°C° 0 mm 3 mps 754 mmHg 27%
14:00 +31°C° 0 mm 3 mps 754 mmHg 26%
15:00 +31°C° 0 mm 3 mps 754 mmHg 25%
16:00 +31°C° 0 mm 3 mps 754 mmHg 27%
17:00 +30°C° 0 mm 3 mps 755 mmHg 29%
18:00 +30°C° 0 mm 4 mps 755 mmHg 31%
19:00 +28°C° 0 mm 4 mps 755 mmHg 36%
20:00 +26°C° 0 mm 4 mps 756 mmHg 41%
21:00 +25°C° 0 mm 3 mps 757 mmHg 46%
22:00 +24°C° 0 mm 3 mps 757 mmHg 50%
23:00 +22°C° 0 mm 3 mps 757 mmHg 55%

Day after tomorrow, 25 July, Sunday

Time Temperature Precipitation Wind Pressure Humidity
00:00 +21°C° 0 mm 3 mps 757 mmHg 59%
01:00 +20°C° 0 mm 3 mps 757 mmHg 61%
02:00 +20°C° 0 mm 3 mps 758 mmHg 64%
03:00 +19°C° 0 mm 2 mps 758 mmHg 67%
04:00 +20°C° 0 mm 2 mps 758 mmHg 67%
05:00 +20°C° 0 mm 2 mps 759 mmHg 67%
06:00 +20°C° 0 mm 2 mps 759 mmHg 67%
07:00 +23°C° 0 mm 2 mps 759 mmHg 59%
08:00 +25°C° 0 mm 3 mps 759 mmHg 52%
09:00 +28°C° 0 mm 3 mps 759 mmHg 44%
10:00 +29°C° 0 mm 3 mps 759 mmHg 40%
11:00 +30°C° 0 mm 3 mps 759 mmHg 37%
12:00 +31°C° 0 mm 3 mps 759 mmHg 33%
13:00 +31°C° 0 mm 3 mps 759 mmHg 32%
14:00 +33°C° 0 mm 3 mps 759 mmHg 30%
15:00 +33°C° 0 mm 3 mps 759 mmHg 29%
16:00 +33°C° 0 mm 3 mps 759 mmHg 29%
17:00 +31°C° 0 mm 3 mps 759 mmHg 30%
18:00 +32°C° 0 mm 4 mps 759 mmHg 30%
19:00 +29°C° 0 mm 4 mps 759 mmHg 34%
20:00 +28°C° 0 mm 4 mps 760 mmHg 37%
21:00 +26°C° 0 mm 4 mps 760 mmHg 41%
22:00 +25°C° 0 mm 4 mps 760 mmHg 40%
23:00 +25°C° 0 mm 4 mps 760 mmHg 39%

26 July, Monday

Time Temperature Precipitation Wind Pressure Humidity
00:00 +23°C° 0 mm 4 mps 761 mmHg 39%
01:00 +23°C° 0 mm 4 mps 761 mmHg 39%
02:00 +23°C° 0 mm 4 mps 761 mmHg 39%
03:00 +23°C° 0 mm 4 mps 761 mmHg 39%
04:00 +22°C° 0 mm 4 mps 761 mmHg 41%
05:00 +22°C° 0 mm 4 mps 761 mmHg 42%
06:00 +22°C° 0 mm 4 mps 761 mmHg 44%
07:00 +25°C° 0 mm 4 mps 761 mmHg 40%
08:00 +27°C° 0 mm 5 mps 761 mmHg 37%
09:00 +29°C° 0 mm 5 mps 761 mmHg 33%
10:00 +30°C° 0 mm 5 mps 761 mmHg 32%
11:00 +32°C° 0 mm 5 mps 761 mmHg 31%
12:00 +33°C° 0 mm 5 mps 761 mmHg 29%
13:00 +33°C° 0 mm 5 mps 761 mmHg 29%
14:00 +33°C° 0 mm 4 mps 761 mmHg 29%
15:00 +33°C° 0 mm 4 mps 760 mmHg 29%
16:00 +33°C° 0 mm 4 mps 760 mmHg 29%
17:00 +32°C° 0 mm 4 mps 760 mmHg 30%
18:00 +31°C° 0 mm 3 mps 760 mmHg 31%
19:00 +29°C° 0 mm 3 mps 761 mmHg 33%
20:00 +28°C° 0 mm 3 mps 761 mmHg 35%
21:00 +27°C° 0 mm 3 mps 761 mmHg 38%
22:00 +26°C° 0 mm 4 mps 761 mmHg 37%
23:00 +25°C° 0 mm 4 mps 761 mmHg 37%

27 July, Tuesday

Time Temperature Precipitation Wind Pressure Humidity
00:00 +23°C° 0 mm 5 mps 761 mmHg 36%
01:00 +23°C° 0 mm 5 mps 761 mmHg 37%
02:00 +22°C° 0 mm 4 mps 761 mmHg 39%
03:00 +22°C° 0 mm 3 mps 761 mmHg 40%
04:00 +21°C° 0 mm 3 mps 762 mmHg 42%
05:00 +21°C° 0 mm 3 mps 762 mmHg 43%
06:00 +21°C° 0 mm 3 mps 762 mmHg 44%
07:00 +24°C° 0 mm 3 mps 762 mmHg 41%
08:00 +25°C° 0 mm 4 mps 762 mmHg 38%
09:00 +27°C° 0 mm 4 mps 762 mmHg 34%
10:00 +28°C° 0 mm 4 mps 762 mmHg 32%
11:00 +29°C° 0 mm 4 mps 762 mmHg 29%
12:00 +32°C° 0 mm 4 mps 761 mmHg 27%
13:00 +32°C° 0 mm 5 mps 761 mmHg 26%
14:00 +33°C° 0 mm 5 mps 761 mmHg 25%
15:00 +33°C° 0 mm 6 mps 760 mmHg 24%
16:00 +33°C° 0 mm 5 mps 760 mmHg 24%
17:00 +32°C° 0 mm 5 mps 760 mmHg 24%
18:00 +32°C° 0 mm 5 mps 760 mmHg 24%
19:00 +28°C° 0 mm 4 mps 761 mmHg 27%
20:00 +26°C° 0 mm 4 mps 761 mmHg 31%
21:00 +24°C° 0 mm 3 mps 761 mmHg 34%
22:00 +22°C° 0 mm 3 mps 761 mmHg 36%
23:00 +22°C° 0 mm 3 mps 761 mmHg 37%

28 July, Wednesday

Time Temperature Precipitation Wind Pressure Humidity
00:00 +21°C° 0 mm 3 mps 761 mmHg 39%
01:00 +20°C° 0 mm 3 mps 761 mmHg 40%
02:00 +20°C° 0 mm 3 mps 761 mmHg 42%
03:00 +19°C° 0 mm 3 mps 761 mmHg 43%
04:00 +19°C° 0 mm 3 mps 761 mmHg 44%
05:00 +20°C° 0 mm 2 mps 761 mmHg 45%
06:00 +20°C° 0 mm 2 mps 761 mmHg 46%
07:00 +23°C° 0 mm 2 mps 761 mmHg 41%
08:00 +26°C° 0 mm 2 mps 761 mmHg 35%
09:00 +28°C° 0 mm 3 mps 761 mmHg 29%
10:00 +29°C° 0 mm 3 mps 761 mmHg 27%
11:00 +30°C° 0 mm 3 mps 760 mmHg 25%
12:00 +31°C° 0 mm 2 mps 760 mmHg 23%
13:00 +32°C° 0 mm 2 mps 760 mmHg 22%
14:00 +32°C° 0 mm 2 mps 759 mmHg 22%
15:00 +34°C° 0 mm 2 mps 759 mmHg 21%
16:00 +34°C° 0 mm 2 mps 759 mmHg 21%
17:00 +32°C° 0 mm 1 mps 759 mmHg 21%
18:00 +32°C° 0 mm 1 mps 759 mmHg 22%
19:00 +30°C° 0 mm 1 mps 759 mmHg 25%
20:00 +28°C° 0 mm 1 mps 759 mmHg 29%
21:00 +26°C° 0 mm 1 mps 759 mmHg 33%
22:00 +25°C° 0 mm 1 mps 759 mmHg 34%
23:00 +24°C° 0 mm 1 mps 759 mmHg 35%
Show more

We Need Your Consent

Meteoprog and our Service Providers may store and access personal data such as cookies, device identifiers or other similar technologies on your device and process such data to personalise content and ads, as well as provide social media features and to analyse the traffic.

  • Store and/or access information on your device

    Cookies, device identifiers or other information can be stored or accessed on your device for the purposes indicated above.

  • Personalised ads and content, ad and content measurement, audience insights, and products development

    Ads and content can be personalised based on a profile. More data can be added to better personalise ads and content. Ad and content performance can be measured. Insights about the audience who saw the ads and content can be derived. Such data can be used to develop or improve user’s experience, systems and software.

By clicking ‘I Agree’ you will allow the use of indicated cookies, device identifiers, web beacons or other similar technologies. Your settings can be changed in the browser on your device.

For certain purposes, legitimate interests may be relied on, rather than consent. You can read more about this in our Privacy and Cookie Policy.